Weather Roundup
Issued by NWS

Home | Current Version | Previous Version | Graphics & Text | Print | Product List | Glossary Off
Versions: 1 2 3 4 5 6 7 8 9 10 11 12 13 14 15 16 17 18 19 20 21 22 23 24 25 26 27 28 29 30 31 32 33 34 35 36 37 38 39 40 41 42 43 44 45 46 47 48 49 50

000
NZUS93 KARX 290259
HRRWXR

CURRENT HOURLY OBSERVATIONS ACROSS
MUCH OF THE UPPER MISSISSIPPI VALLEY
NATIONAL WEATHER SERVICE LA CROSSE WI
900 PM CST SUN DEC 28 2014


...SOUTHEAST MINNESOTA...


CITY           SKY/WX    TMP DP  RH WIND       PRES   REMARKS
ROCHESTER      PTCLDY    12  10  92 NE5       30.25R WCI   4
ROCHESTER/MAYO FAIR      16  12  85 CALM      30.26R
WINONA         CLEAR     12  10  92 CALM      30.30R
AUSTIN         MOCLDY    12  10  92 NE6       30.24S WCI   3
ALBERT LEA     MOCLDY    14  12  92 NE5       30.24S FOG     WCI   6
DODGE CENTER   PTCLDY    12  10  92 CALM      30.25R FOG
PRESTON        MOCLDY    13  11  90 CALM      30.25R
OWATONNA       PTCLDY    10   7  85 CALM      30.26R FOG
FARIBAULT      PTCLDY    10   9  92 N3        30.27S
$$

...ELSEWHERE IN MINNESOTA...


CITY           SKY/WX    TMP DP  RH WIND       PRES   REMARKS
MINNEAPOLIS    PTCLDY    14   4  64 NE7       30.31R WCI   4
INTNL FALLS    CLEAR     -8 -13  78 NW5       30.34R WCI -19
DULUTH         CLEAR      3  -6  66 NW9       30.26R WCI -12
RED WING       PTCLDY    12   7  79 NE3       30.29R
REDWOOD FALLS  CLOUDY    18  11  74 NE5       30.30R WCI  11
MANKATO        PTCLDY    12   7  79 CALM      30.28R
WORTHINGTON    CLOUDY    18 -27  12 NE8       30.25R WCI   7
FAIRMONT       CLOUDY    16  12  86 N5        30.25R WCI   9
$$

...SOUTHWEST WISCONSIN...


CITY           SKY/WX    TMP DP  RH WIND       PRES   REMARKS
LA CROSSE      CLEAR     15  11  83 NW5       30.28R WCI   8
PRAIRIE DU CHI CLOUDY    26  19  77 NW3       30.25R
BOSCOBEL       CLOUDY    22  18  85 CALM      30.26R FOG
LONE ROCK      NOT AVBL
PLATTEVILLE    MOCLDY    25  20  83 CALM      30.22R
FORT MC COY    CLEAR     17  14  89 CALM      30.27S
VIROQUA        FAIR      21  18  88 N9        30.22R WCI  10
WIS DELLS      NOT AVBL
$$

...ELSEWHERE IN WISCONSIN...


CITY           SKY/WX    TMP DP  RH WIND       PRES   REMARKS
MILWAUKEE      FAIR      26  17  68 N5        30.23R WCI  20
MADISON        CLOUDY    29  19  66 CALM      30.23R
GREEN BAY      CLEAR     22  15  75 N6        30.25R WCI  14
EAU CLAIRE     NOT AVBL
BLACK RVR FLS  FAIR       7   4  90 CALM      30.27R FOG
MEDFORD        CLEAR    N/A N/A N/A N5        30.21S
WAUSAU         CLEAR     10   6  84 N3        30.23R
WIS RAPIDS     CLEAR     16  11  80 NW6       30.27R WCI   7
MARSHFIELD     CLEAR      7   4  87 NW6       30.24R FOG     WCI  -3
RICE LAKE      FAIR       8  -2  64 N8        30.28S WCI  -4
$$

...NORTHEAST IOWA...


CITY           SKY/WX    TMP DP  RH WIND       PRES   REMARKS
DECORAH        CLOUDY    19  16  86 N6        30.22R WCI  11
MASON CITY     MOCLDY    11   9  92 NE3       30.25R
CHARLES CITY   CLOUDY    18  16  93 NE8       30.23R WCI   7
OELWEIN        CLOUDY    23  21  93 NE8       30.23R WCI  14
$$

...ELSEWHERE IN IOWA...


CITY           SKY/WX    TMP DP  RH WIND       PRES   REMARKS
DES MOINES     CLOUDY    31  22  69 NE7       30.20R WCI  24
IOWA CITY      MOCLDY    23  19  85 CALM      30.25R
FORT DODGE     CLOUDY    18  12  79 N6        30.23R WCI   9
$$

...NORTHERN ILLINOIS...


CITY           SKY/WX    TMP DP  RH WIND       PRES   REMARKS
CHICAGO-OHARE  PTCLDY    25  17  72 W6        30.22R WCI  18
CHICAGO-MIDWAY PTCLDY    27  17  66 W7        30.23R WCI  19
MOLINE         PTCLDY    24  18  77 CALM      30.23R
ROCKFORD       PTCLDY    23  17  78 S3        30.25R
PEORIA         PTCLDY    25  17  72 CALM      30.24R
$$

NOTE: "FAIR" INDICATES FEW OR NO CLOUDS BELOW 12,000 FEET WITH NO
SIGNIFICANT WEATHER AND/OR OBSTRUCTIONS TO VISIBILITY. WIND
SPEEDS ARE IN MILES-PER-HOUR.



USA.gov is the U.S. government's official web portal to all federal, state and local government web resources and services.